Weather History for Laramie, WY

Change the Weather History Date:

Friday, November 2, 2012

  Actual Average Record
Temperature  
Mean Temperature 41 °F 36 °F  
Max Temperature 54 °F 48 °F 66 °F (2005)
Min Temperature 28 °F 23 °F -17 °F (1991)
Degree Days  
Heating Degree Days 24 29  
Month to date heating degree days 44 58  
Since 1 July heating degree days 1109 1301  
Cooling Degree Days 0 0  
Month to date cooling degree days 0 0  
Year to date cooling degree days 211 67  
Moisture  
Dew Point 22 °F    
Average Humidity 51    
Maximum Humidity 75    
Minimum Humidity 26    
Precipitation  
Precipitation 0.00 in 0.02 in 0.60 in (1987)
Month to date precipitation 0.00 0.04  
Year to date precipitation 5.90 10.10  
Sea Level Pressure  
Sea Level Pressure 29.98 in    
Wind  
Wind Speed 9 mph (West)    
Max Wind Speed 23 mph    
Max Gust Speed 30 mph    
Visibility 10 miles    
Events      
T = Trace of Precipitation, MM = Missing Value Source: NWS Daily Summary

Daily Weather History Graph

Daily Weather History Graph

Search for Another Location

Airport:

Trip Planner

Search our weather history database for the weather conditions in past years. The results will help you decide how hot, cold, wet, or windy it might be!

Date:

Astronomy

Nov. 02, 2012 Rise Set
Actual Time 7:35 AM MDT 5:55 PM MDT
Civil Twilight 7:07 AM MDT 6:24 PM MDT
Nautical Twilight 6:34 AM MDT 6:57 PM MDT
Astronomical Twilight 6:02 AM MDT 7:29 PM MDT
Moon 8:44 PM MDT (11/2) 10:59 AM MDT (11/2)
Length of Visible Light 11h 17m
Length of Day
10h 20m
Waning Gibbous, 87% of the Moon is Illuminated
Nov 2
Waning Gibbous
Nov 6
Last Quarter
Nov 13
New
Nov 20
First Quarter
Nov 28
Full

Hourly Weather History & Observations

Time (MDT) Temp. Windchill Dew Point Humidity Pressure Visibility Wind Dir Wind Speed Gust Speed Precip Events Conditions
12:53 AM 35.1 °F 28.6 °F 23.0 °F 61% 29.88 in 10.0 mi WSW 8.1 mph - N/A   Clear
1:53 AM 39.0 °F 31.0 °F 23.0 °F 53% 29.85 in 10.0 mi WNW 13.8 mph - N/A   Clear
2:53 AM 39.0 °F 31.4 °F 23.0 °F 53% 29.87 in 10.0 mi WNW 12.7 mph - N/A   Clear
3:53 AM 37.0 °F 31.0 °F 24.1 °F 59% 29.88 in 10.0 mi West 8.1 mph - N/A   Clear
4:53 AM 37.0 °F 33.3 °F 25.0 °F 62% 29.89 in 10.0 mi WNW 4.6 mph - N/A   Clear
5:53 AM 36.0 °F 30.3 °F 24.1 °F 62% 29.93 in 10.0 mi West 6.9 mph - N/A   Clear
6:53 AM 35.1 °F 32.2 °F 24.1 °F 64% 29.96 in 10.0 mi WNW 3.5 mph - N/A   Partly Cloudy
7:53 AM 34.0 °F 27.2 °F 24.1 °F 67% 30.02 in 10.0 mi West 8.1 mph - N/A   Scattered Clouds
8:53 AM 37.0 °F 32.4 °F 25.0 °F 62% 29.99 in 10.0 mi SSE 5.8 mph - N/A   Clear
9:53 AM 43.0 °F - 26.1 °F 51% 29.96 in 10.0 mi Calm Calm - N/A   Clear
10:53 AM 48.0 °F - 26.1 °F 42% 29.99 in 10.0 mi NNW 13.8 mph - N/A   Scattered Clouds
11:53 AM 50.0 °F - 24.1 °F 36% 29.97 in 10.0 mi WNW 12.7 mph - N/A   Scattered Clouds
12:53 PM 52.0 °F - 19.9 °F 28% 29.95 in 10.0 mi NW 13.8 mph - N/A   Clear
1:53 PM 53.1 °F - 19.9 °F 27% 29.92 in 10.0 mi West 17.3 mph 23.0 mph N/A   Partly Cloudy
2:53 PM 54.0 °F - 19.9 °F 26% 29.91 in 10.0 mi West 17.3 mph 29.9 mph N/A   Mostly Cloudy
3:53 PM 52.0 °F - 19.0 °F 27% 29.95 in 10.0 mi WNW 18.4 mph 24.2 mph N/A   Overcast
4:53 PM 51.1 °F - 21.0 °F 31% 29.97 in 10.0 mi West 19.6 mph 25.3 mph N/A   Scattered Clouds
5:53 PM 43.0 °F 36.4 °F 21.0 °F 42% 30.03 in 10.0 mi WNW 12.7 mph - N/A   Clear
6:53 PM 37.0 °F 30.4 °F 21.0 °F 52% 30.10 in 10.0 mi NW 9.2 mph - N/A   Clear
7:53 PM 36.0 °F 30.3 °F 19.0 °F 50% 30.13 in 10.0 mi NE 6.9 mph - N/A   Clear
8:53 PM 36.0 °F - 19.0 °F 50% 30.10 in 10.0 mi Calm Calm - N/A   Clear
9:53 PM 32.0 °F 26.4 °F 19.9 °F 61% 30.10 in 10.0 mi SSE 5.8 mph - N/A   Scattered Clouds
10:53 PM 30.9 °F 27.5 °F 21.9 °F 69% 30.09 in 10.0 mi South 3.5 mph - N/A   Overcast
11:53 PM 28.0 °F 22.8 °F 21.0 °F 75% 30.11 in 10.0 mi WSW 4.6 mph - N/A   Mostly Cloudy